Wind_Speed
26 25 25 26 26 25 24 22 21 20 19 19 18 17 17 16 16 17 17 17 17 16 16 16 16 16 16 15 14 14 13 14 14 14 13 12 11 10 9 10 10 11
27 26 25 26 25 25 23 22 20 20 19 19 18 17 17 17 17 17 17 17 17 17 17 17 17 17 17 17 16 15 15 15 16 16 15 14 13 12 11 11 11 11
29 28 27 26 25 24 23 22 21 20 19 19 18 18 19 19 19 18 18 18 19 19 19 19 19 18 18 18 17 17 17 17 17 17 17 16 15 14 13 12 11 10
30 29 27 26 25 24 24 23 22 21 20 19 19 19 20 20 21 20 19 19 20 20 20 19 19 19 18 18 18 18 18 18 19 19 19 18 17 16 15 14 12 11
31 30 28 26 25 25 25 25 23 22 21 20 20 19 20 21 22 21 20 19 19 20 19 18 17 17 17 17 18 18 19 20 20 21 20 19 19 18 17 16 15 13
31 31 30 28 26 26 25 25 24 23 23 21 21 20 20 21 22 21 20 19 17 17 17 16 15 15 15 15 16 17 19 20 21 22 21 21 21 20 20 18 17 16
31 31 30 29 28 27 26 25 24 24 23 22 22 21 20 21 21 20 20 18 16 15 14 13 13 13 13 12 13 15 18 20 22 23 22 22 22 22 21 20 19 18
31 31 30 30 29 28 27 26 26 25 25 24 23 22 20 20 20 20 20 18 16 14 13 12 12 12 12 11 11 13 16 18 21 22 22 22 23 22 22 21 20 20
32 31 31 31 30 29 28 27 26 26 25 25 24 22 21 20 20 21 20 19 17 15 14 13 12 12 12 11 10 11 13 15 17 19 20 22 23 22 22 22 22 21
34 33 33 32 31 30 28 27 27 26 26 25 24 23 22 20 20 21 21 20 18 17 16 14 12 12 11 11 10 10 11 11 13 15 16 19 21 22 23 23 23 22
35 34 34 32 31 30 29 28 27 27 26 25 24 24 22 21 21 21 22 21 19 18 17 15 13 12 11 10 10 10 10 10 11 11 12 14 16 18 21 22 23 23
35 35 34 32 31 30 30 29 28 28 27 26 25 24 23 22 22 21 22 21 19 19 18 16 16 15 13 12 12 12 11 11 11 11 11 11 12 13 15 17 20 22
35 35 34 33 32 31 30 30 29 28 28 26 25 25 24 24 23 22 21 21 20 20 19 18 18 17 16 15 15 14 13 13 12 12 11 11 11 12 12 13 14 16
33 33 33 33 33 32 32 31 30 30 29 27 27 26 25 25 25 24 22 21 21 21 20 20 20 20 18 18 17 16 15 15 14 14 13 13 13 13 14 14 14 15
30 31 32 32 33 33 33 32 31 31 30 29 28 27 26 25 25 25 25 24 23 22 22 22 22 20 19 18 18 17 17 16 16 16 16 16 16 16 17 17 17 18
28 29 30 31 31 32 31 31 32 32 31 30 30 28 27 26 25 26 26 25 25 24 23 23 23 21 19 18 18 17 17 17 17 17 17 17 18 18 19 19 20 21
24 26 27 28 29 29 30 30 30 31 31 31 30 30 29 27 27 26 26 25 26 25 25 25 24 21 19 19 18 18 18 19 18 18 19 19 19 20 20 21 22 23
22 23 24 25 26 27 27 28 28 29 29 30 30 30 29 28 27 26 25 25 25 25 25 25 24 21 20 19 18 18 18 18 19 18 19 19 19 20 20 21 22 23
24 24 24 23 24 25 25 27 27 28 27 27 28 28 28 29 28 26 25 25 25 25 25 24 23 21 20 19 18 17 17 18 18 18 18 17 16 16 15 15 15 16
27 27 26 25 24 24 25 26 27 27 26 26 26 27 27 28 27 26 26 25 25 25 24 24 22 20 19 18 17 17 16 17 17 17 16 15 13 12 12 11 11 12
28 28 27 26 25 25 25 25 25 25 26 25 25 25 25 25 26 26 26 25 25 25 25 24 22 21 19 19 17 17 17 17 18 17 16 15 14 14 13 13 14 15
29 29 29 28 27 27 26 25 24 24 24 25 25 24 24 24 24 25 25 25 26 26 26 25 23 21 20 19 18 18 19 19 19 18 18 17 16 16 16 16 17 18
28 29 30 30 29 29 28 27 25 24 23 23 24 24 24 23 23 23 24 25 26 26 26 25 23 21 21 20 20 20 21 21 20 20 20 19 18 18 19 19 20 21
26 27 29 30 31 31 31 30 28 26 24 24 24 24 24 23 23 23 24 25 27 27 27 26 24 22 22 22 21 21 22 22 21 21 22 21 21 21 21 22 23 23
21 23 25 28 30 32 32 32 31 30 28 26 25 24 24 24 24 24 24 25 27 27 27 27 25 23 23 22 22 22 22 22 23 23 24 23 23 24 24 25 25 25
17 18 21 24 26 28 29 30 31 32 32 31 29 27 26 26 25 25 24 25 27 28 28 27 26 24 24 23 23 23 24 24 26 26 26 26 26 26 27 27 26 26
Wind_Direction
199 201 203 204 206 209 211 212 211 208 208 213 218 224 230 231 229 231 233 234 235 233 231 232 232 229 228 228 225 218 210 204 199 192 189 188 180 168 158 147 138 131
200 201 203 204 206 208 211 213 212 209 208 210 213 217 222 226 227 228 229 231 232 231 231 232 234 233 231 229 227 221 213 207 203 198 194 193 187 177 169 161 151 145
201 203 205 205 206 207 209 212 215 214 211 210 212 214 219 225 228 227 227 228 229 230 230 232 234 235 234 231 228 221 213 207 206 204 199 196 192 184 179 174 169 164
203 205 207 207 207 207 209 211 213 216 217 216 214 215 219 224 228 229 228 229 230 231 232 232 233 235 235 233 227 219 211 207 207 208 203 199 196 191 189 187 184 182
204 206 207 209 210 210 211 211 212 214 218 219 218 218 220 224 228 231 231 233 233 234 236 235 233 233 233 231 225 217 210 206 207 209 207 204 202 199 198 198 196 195
205 206 207 208 211 213 214 213 212 214 217 219 220 220 221 224 228 230 233 236 235 234 235 234 230 228 227 225 219 213 208 206 207 209 209 209 209 206 205 206 205 205
206 207 207 208 210 213 214 214 214 214 215 217 219 219 219 222 225 228 233 236 234 229 226 223 218 216 217 214 209 206 207 206 209 211 211 212 214 212 211 211 212 213
207 207 208 209 210 212 213 214 214 213 213 215 217 217 217 218 220 223 229 232 228 222 217 210 203 202 205 203 197 198 203 206 210 213 214 216 218 218 218 219 220 221
207 207 209 210 211 212 212 213 213 212 213 215 216 217 217 215 214 218 223 225 222 218 214 208 200 196 196 193 189 190 196 202 209 214 216 218 221 222 224 227 228 228
208 208 209 211 211 212 212 212 212 213 214 215 217 219 217 214 212 213 218 220 218 217 215 211 205 201 197 190 187 187 189 193 200 207 212 217 221 224 227 230 231 232
210 209 210 211 212 213 212 212 214 215 216 216 217 219 219 216 213 213 215 216 215 214 214 214 213 213 211 202 197 198 198 198 199 201 205 210 215 220 225 230 233 235
212 211 211 212 212 213 214 214 216 217 218 218 218 219 220 219 217 215 215 215 214 214 214 214 216 219 220 218 217 218 218 217 216 213 213 214 215 218 223 228 233 236
216 214 213 213 213 214 215 216 218 219 219 219 219 220 220 221 220 219 217 216 215 215 215 216 219 222 223 225 226 229 231 232 234 233 234 234 234 235 237 237 236 235
219 218 218 217 216 216 216 217 219 220 221 221 221 222 222 222 222 221 220 219 218 218 218 219 223 223 224 226 229 233 235 237 241 244 247 247 248 250 252 252 250 246
220 221 222 221 220 219 218 219 220 221 222 223 224 224 224 224 224 222 221 221 220 220 221 223 226 225 225 228 231 235 239 242 245 247 250 252 253 254 255 255 256 254
220 221 223 223 223 223 222 222 223 223 224 225 226 227 227 226 226 224 222 222 222 222 223 226 229 228 228 231 235 239 243 246 248 249 252 254 255 256 256 256 257 257
218 220 222 224 225 225 225 226 226 227 227 228 229 229 229 229 228 226 224 223 224 224 225 228 231 231 232 235 238 242 246 249 252 254 255 255 255 255 255 255 256 256
220 221 223 224 225 227 227 228 229 229 229 229 230 230 230 230 230 229 226 225 226 226 226 229 232 234 236 238 239 242 247 252 255 256 256 256 255 254 253 252 253 255
224 226 227 227 227 228 229 230 230 230 230 229 230 230 230 231 232 231 229 227 227 227 227 230 232 234 236 237 239 242 247 252 255 256 255 253 251 250 250 249 251 254
225 227 229 230 230 231 231 232 232 231 231 230 230 230 230 231 232 232 231 229 228 228 229 230 231 231 232 234 236 239 242 245 246 246 245 245 244 246 248 251 254 258
226 229 230 230 231 232 233 232 232 232 231 231 230 230 230 230 230 231 231 229 228 229 229 228 227 227 229 230 231 230 230 231 232 235 239 242 247 253 258 263 266 267
227 230 231 232 232 233 234 233 232 232 232 232 231 230 229 229 228 228 228 226 227 229 228 225 224 226 226 225 220 217 218 223 228 234 241 247 251 258 264 268 270 271
228 230 232 233 233 233 233 234 233 233 233 232 232 231 230 229 227 227 227 226 226 228 227 225 224 224 223 217 211 210 215 223 230 237 245 250 255 259 263 265 265 267
229 231 232 233 234 234 234 234 234 233 233 233 233 232 232 231 229 228 227 226 226 226 227 227 226 223 219 213 210 214 221 228 235 243 249 254 259 262 264 265 264 264
228 230 232 233 234 234 235 234 234 234 234 234 234 233 232 231 230 229 226 224 226 227 229 230 228 222 219 218 218 223 230 236 243 249 253 258 262 264 265 264 264 264
229 226 227 229 230 231 232 233 234 233 234 234 234 234 234 232 230 229 226 224 225 228 230 232 230 226 224 226 229 233 239 244 249 254 257 261 264 265 265 264 264 265
Height
3195 3197 3199 3201 3203 3206 3208 3209 3211 3213 3215 3216 3218 3219 3220 3221 3222 3222 3223 3224 3225 3225 3226 3227 3227 3229 3230 3231 3232 3233 3234 3235 3236 3236 3237 3237 3237 3237 3238 3238 3239 3239
3193 3195 3197 3199 3201 3203 3206 3208 3209 3211 3213 3215 3216 3218 3218 3219 3220 3221 3221 3222 3223 3224 3225 3225 3226 3227 3228 3229 3231 3232 3233 3234 3235 3236 3236 3237 3237 3237 3238 3238 3239 3239
3191 3193 3195 3197 3199 3202 3204 3206 3208 3209 3211 3213 3214 3216 3217 3218 3218 3219 3220 3221 3221 3222 3223 3224 3225 3225 3226 3228 3229 3231 3232 3233 3234 3235 3235 3236 3236 3237 3237 3238 3238 3239
3188 3191 3193 3196 3198 3200 3202 3204 3206 3207 3209 3211 3212 3214 3215 3216 3217 3217 3218 3219 3220 3220 3221 3222 3223 3224 3225 3226 3227 3229 3230 3231 3232 3233 3234 3235 3236 3236 3237 3238 3238 3239
3187 3189 3191 3194 3196 3198 3200 3202 3204 3206 3207 3209 3211 3212 3213 3214 3215 3216 3217 3218 3219 3219 3220 3221 3222 3223 3223 3224 3225 3227 3228 3230 3231 3232 3233 3234 3235 3236 3236 3237 3238 3238
3184 3187 3189 3192 3194 3196 3198 3200 3202 3204 3206 3207 3209 3210 3212 3213 3214 3214 3215 3216 3218 3218 3219 3220 3220 3221 3222 3223 3224 3225 3226 3228 3229 3230 3231 3233 3234 3235 3235 3236 3237 3238
3182 3184 3187 3189 3191 3193 3196 3198 3200 3202 3204 3205 3207 3208 3210 3211 3212 3213 3214 3215 3217 3217 3218 3219 3219 3220 3221 3222 3222 3223 3225 3226 3227 3228 3230 3231 3232 3233 3234 3235 3236 3237
3181 3183 3185 3187 3189 3191 3193 3196 3198 3200 3202 3203 3204 3206 3207 3209 3211 3212 3213 3214 3216 3217 3217 3218 3219 3219 3220 3221 3221 3222 3223 3225 3226 3227 3228 3229 3230 3232 3233 3234 3234 3236
3179 3181 3183 3184 3186 3188 3191 3193 3196 3198 3199 3201 3203 3204 3206 3207 3209 3210 3212 3213 3214 3215 3216 3217 3218 3218 3219 3220 3221 3222 3222 3224 3225 3226 3227 3228 3229 3230 3231 3232 3233 3234
3176 3178 3180 3181 3184 3186 3189 3191 3194 3196 3197 3199 3201 3202 3204 3206 3207 3208 3210 3211 3213 3214 3215 3216 3217 3218 3218 3219 3220 3221 3222 3223 3224 3224 3225 3226 3227 3228 3229 3230 3231 3232
3174 3176 3177 3179 3182 3184 3186 3189 3191 3194 3196 3198 3199 3201 3203 3204 3205 3206 3208 3209 3211 3212 3214 3215 3216 3217 3217 3218 3219 3220 3221 3222 3223 3223 3224 3225 3226 3227 3227 3228 3229 3230
3172 3174 3175 3178 3180 3182 3185 3187 3189 3191 3193 3195 3197 3199 3201 3202 3203 3205 3206 3208 3210 3211 3212 3213 3214 3215 3216 3217 3218 3219 3220 3221 3221 3222 3223 3224 3225 3225 3226 3226 3227 3228
3170 3172 3174 3176 3178 3180 3183 3185 3187 3189 3191 3193 3195 3197 3199 3200 3201 3203 3205 3206 3208 3209 3210 3212 3213 3214 3215 3216 3217 3218 3218 3219 3220 3221 3222 3223 3223 3224 3225 3225 3226 3226
3168 3171 3173 3175 3177 3178 3180 3182 3184 3186 3188 3191 3192 3194 3196 3198 3199 3201 3203 3204 3206 3207 3208 3209 3210 3211 3213 3214 3215 3216 3217 3218 3219 3219 3220 3221 3222 3222 3223 3223 3224 3224
3167 3169 3171 3173 3175 3176 3178 3180 3181 3183 3186 3188 3189 3191 3194 3196 3197 3199 3200 3202 3203 3205 3206 3207 3208 3209 3211 3212 3213 3214 3215 3216 3217 3218 3218 3219 3220 3220 3220 3221 3221 3222
3165 3167 3169 3171 3173 3174 3176 3178 3179 3181 3183 3184 3186 3189 3191 3193 3195 3196 3198 3199 3201 3202 3203 3204 3205 3206 3208 3210 3211 3213 3214 3214 3215 3216 3217 3217 3217 3218 3218 3218 3219 3219
3163 3165 3167 3169 3171 3173 3174 3176 3177 3179 3180 3182 3184 3186 3188 3190 3192 3193 3195 3196 3198 3199 3201 3201 3202 3204 3206 3208 3209 3210 3211 3212 3213 3213 3214 3214 3215 3215 3215 3216 3216 3216
3161 3163 3165 3167 3169 3171 3172 3174 3175 3176 3177 3179 3181 3183 3185 3187 3189 3191 3192 3194 3195 3196 3197 3198 3200 3202 3204 3205 3207 3208 3209 3209 3210 3210 3211 3211 3212 3212 3212 3213 3213 3213
3160 3161 3163 3165 3167 3169 3170 3172 3173 3174 3175 3176 3178 3180 3182 3184 3186 3188 3190 3191 3192 3193 3194 3196 3197 3199 3201 3203 3204 3205 3206 3207 3207 3207 3207 3208 3208 3209 3210 3210 3210 3211
3158 3159 3161 3163 3165 3166 3168 3169 3170 3171 3173 3174 3176 3177 3179 3181 3183 3185 3187 3188 3189 3190 3192 3193 3195 3197 3198 3200 3201 3202 3203 3204 3204 3204 3205 3205 3206 3207 3207 3208 3208 3209
3155 3157 3159 3160 3162 3164 3165 3166 3168 3169 3171 3172 3173 3175 3176 3179 3181 3183 3184 3186 3187 3188 3189 3190 3192 3194 3196 3197 3198 3200 3200 3201 3201 3202 3202 3203 3203 3204 3205 3206 3206 3206
3153 3154 3156 3158 3160 3161 3162 3164 3166 3167 3169 3170 3171 3173 3174 3176 3178 3180 3182 3183 3184 3186 3187 3188 3190 3192 3193 3194 3196 3197 3197 3198 3198 3199 3200 3200 3201 3202 3203 3203 3203 3204
3150 3152 3154 3156 3157 3159 3160 3162 3164 3165 3166 3168 3169 3170 3172 3174 3176 3178 3179 3181 3182 3183 3184 3186 3188 3190 3191 3192 3193 3194 3195 3195 3196 3197 3197 3198 3199 3200 3200 3200 3201 3201
3148 3150 3151 3153 3154 3156 3157 3159 3161 3163 3164 3165 3166 3168 3170 3172 3174 3175 3177 3178 3180 3181 3182 3184 3186 3187 3189 3190 3191 3192 3192 3193 3193 3194 3194 3195 3196 3197 3197 3198 3198 3198
3146 3148 3149 3150 3151 3153 3155 3157 3158 3160 3162 3163 3164 3166 3168 3170 3171 3173 3174 3176 3177 3178 3180 3181 3183 3185 3186 3187 3189 3189 3190 3190 3191 3191 3191 3192 3193 3194 3194 3194 3194 3195
3143 3145 3147 3148 3149 3150 3152 3153 3155 3157 3159 3160 3162 3164 3165 3167 3168 3170 3171 3173 3174 3175 3177 3178 3179 3182 3183 3184 3186 3186 3187 3187 3187 3187 3188 3189 3190 3190 3190 3191 3191 3191